Hourly Weather Winchester

Today, 14 July, Tuesday

Time Temperature Precipitation Wind Pressure Humidity
00:00 +16°C° 0 mm 3 mps 758 mmHg 98%
01:00 +16°C° 0.2 mm 3 mps 757 mmHg 98%
02:00 +16°C° 0.2 mm 3 mps 757 mmHg 97%
03:00 +16°C° 0.2 mm 3 mps 757 mmHg 97%
04:00 +16°C° 0 mm 3 mps 757 mmHg 95%
05:00 +16°C° 0 mm 3 mps 757 mmHg 93%
06:00 +16°C° 0 mm 3 mps 756 mmHg 91%
07:00 +17°C° 0 mm 3 mps 757 mmHg 85%
08:00 +17°C° 0 mm 3 mps 757 mmHg 79%
09:00 +18°C° 0 mm 3 mps 757 mmHg 73%
10:00 +19°C° 0 mm 3 mps 757 mmHg 70%
11:00 +20°C° 0 mm 2 mps 757 mmHg 66%
12:00 +20°C° 0 mm 2 mps 757 mmHg 63%
13:00 +20°C° 0.2 mm 3 mps 757 mmHg 66%
14:00 +20°C° 0.2 mm 3 mps 756 mmHg 69%
15:00 +19°C° 0.2 mm 4 mps 756 mmHg 72%
16:00 +19°C° 0.2 mm 4 mps 756 mmHg 73%
17:00 +18°C° 0.2 mm 3 mps 756 mmHg 74%
18:00 +18°C° 0.2 mm 3 mps 756 mmHg 75%
19:00 +16°C° 0 mm 3 mps 756 mmHg 78%
20:00 +14°C° 0 mm 3 mps 756 mmHg 81%
21:00 +13°C° 0 mm 3 mps 757 mmHg 84%
22:00 +13°C° 0 mm 3 mps 757 mmHg 84%
23:00 +13°C° 0 mm 3 mps 757 mmHg 84%

Tomorrow, 15 July, Wednesday

Time Temperature Precipitation Wind Pressure Humidity
00:00 +12°C° 0 mm 3 mps 757 mmHg 84%
01:00 +12°C° 0 mm 3 mps 757 mmHg 84%
02:00 +12°C° 0 mm 3 mps 756 mmHg 85%
03:00 +13°C° 0 mm 2 mps 756 mmHg 85%
04:00 +13°C° 0 mm 2 mps 756 mmHg 85%
05:00 +13°C° 0 mm 2 mps 756 mmHg 85%
06:00 +13°C° 0 mm 2 mps 756 mmHg 85%
07:00 +14°C° 0 mm 2 mps 756 mmHg 84%
08:00 +14°C° 0 mm 2 mps 757 mmHg 83%
09:00 +15°C° 0 mm 2 mps 757 mmHg 82%
10:00 +16°C° 0 mm 2 mps 757 mmHg 78%
11:00 +17°C° 0 mm 2 mps 757 mmHg 75%
12:00 +18°C° 0 mm 3 mps 757 mmHg 72%
13:00 +18°C° 0 mm 3 mps 757 mmHg 72%
14:00 +18°C° 0 mm 3 mps 758 mmHg 73%
15:00 +19°C° 0 mm 3 mps 758 mmHg 73%
16:00 +19°C° 0 mm 3 mps 758 mmHg 74%
17:00 +19°C° 0 mm 3 mps 758 mmHg 75%
18:00 +19°C° 0 mm 3 mps 758 mmHg 75%
19:00 +18°C° 0 mm 3 mps 758 mmHg 79%
20:00 +17°C° 0 mm 3 mps 758 mmHg 84%
21:00 +17°C° 0 mm 3 mps 759 mmHg 88%
22:00 +16°C° 0 mm 3 mps 759 mmHg 89%
23:00 +15°C° 0 mm 2 mps 759 mmHg 90%

Day after tomorrow, 16 July, Thursday

Time Temperature Precipitation Wind Pressure Humidity
00:00 +15°C° 0 mm 2 mps 759 mmHg 92%
01:00 +14°C° 0 mm 2 mps 759 mmHg 92%
02:00 +12°C° 0 mm 3 mps 759 mmHg 93%
03:00 +12°C° 0 mm 3 mps 759 mmHg 94%
04:00 +12°C° 0 mm 3 mps 759 mmHg 92%
05:00 +13°C° 0 mm 3 mps 759 mmHg 89%
06:00 +14°C° 0 mm 3 mps 759 mmHg 86%
07:00 +17°C° 0 mm 3 mps 759 mmHg 80%
08:00 +18°C° 0 mm 3 mps 759 mmHg 74%
09:00 +20°C° 0 mm 4 mps 760 mmHg 68%
10:00 +20°C° 0 mm 4 mps 760 mmHg 67%
11:00 +21°C° 0 mm 4 mps 760 mmHg 67%
12:00 +21°C° 0 mm 4 mps 760 mmHg 66%
13:00 +21°C° 0.1 mm 4 mps 760 mmHg 66%
14:00 +21°C° 0.1 mm 4 mps 760 mmHg 66%
15:00 +22°C° 0.1 mm 4 mps 760 mmHg 67%
16:00 +21°C° 0 mm 4 mps 760 mmHg 69%
17:00 +21°C° 0 mm 3 mps 760 mmHg 72%
18:00 +21°C° 0 mm 3 mps 760 mmHg 74%
19:00 +20°C° 0 mm 3 mps 760 mmHg 79%
20:00 +19°C° 0 mm 2 mps 760 mmHg 83%
21:00 +18°C° 0 mm 2 mps 760 mmHg 88%
22:00 +18°C° 0.1 mm 2 mps 760 mmHg 89%
23:00 +18°C° 0.1 mm 2 mps 760 mmHg 91%

17 July, Friday

Time Temperature Precipitation Wind Pressure Humidity
00:00 +17°C° 0.1 mm 2 mps 760 mmHg 93%
01:00 +17°C° 0 mm 2 mps 760 mmHg 93%
02:00 +16°C° 0 mm 2 mps 759 mmHg 94%
03:00 +15°C° 0 mm 2 mps 759 mmHg 94%
04:00 +16°C° 0 mm 2 mps 759 mmHg 93%
05:00 +16°C° 0 mm 2 mps 759 mmHg 92%
06:00 +16°C° 0 mm 2 mps 759 mmHg 91%
07:00 +18°C° 0 mm 2 mps 759 mmHg 85%
08:00 +19°C° 0 mm 2 mps 760 mmHg 79%
09:00 +21°C° 0 mm 2 mps 760 mmHg 72%
10:00 +21°C° 0 mm 3 mps 760 mmHg 68%
11:00 +22°C° 0 mm 3 mps 760 mmHg 64%
12:00 +23°C° 0 mm 4 mps 760 mmHg 61%
13:00 +23°C° 0 mm 4 mps 759 mmHg 60%
14:00 +23°C° 0 mm 4 mps 759 mmHg 60%
15:00 +25°C° 0 mm 4 mps 759 mmHg 59%
16:00 +23°C° 0 mm 5 mps 759 mmHg 63%
17:00 +22°C° 0 mm 5 mps 759 mmHg 67%
18:00 +21°C° 0 mm 5 mps 759 mmHg 70%
19:00 +19°C° 0 mm 4 mps 759 mmHg 77%
20:00 +17°C° 0 mm 3 mps 759 mmHg 83%
21:00 +14°C° 0 mm 3 mps 759 mmHg 90%
22:00 +14°C° 0 mm 3 mps 759 mmHg 90%
23:00 +14°C° 0 mm 2 mps 759 mmHg 91%

18 July, Saturday

Time Temperature Precipitation Wind Pressure Humidity
00:00 +14°C° 0 mm 2 mps 759 mmHg 92%
01:00 +14°C° 0 mm 2 mps 758 mmHg 92%
02:00 +13°C° 0 mm 2 mps 758 mmHg 93%
03:00 +13°C° 0 mm 2 mps 758 mmHg 93%
04:00 +14°C° 0 mm 2 mps 758 mmHg 90%
05:00 +14°C° 0 mm 3 mps 758 mmHg 87%
06:00 +14°C° 0 mm 3 mps 758 mmHg 84%
07:00 +17°C° 0 mm 3 mps 758 mmHg 78%
08:00 +18°C° 0 mm 4 mps 758 mmHg 73%
09:00 +20°C° 0 mm 4 mps 758 mmHg 68%
10:00 +20°C° 0 mm 4 mps 758 mmHg 69%
11:00 +20°C° 0 mm 4 mps 758 mmHg 70%
12:00 +20°C° 0 mm 5 mps 758 mmHg 71%
13:00 +20°C° 0 mm 5 mps 758 mmHg 73%
14:00 +20°C° 0 mm 4 mps 757 mmHg 75%
15:00 +20°C° 0 mm 4 mps 757 mmHg 76%
16:00 +20°C° 0 mm 4 mps 757 mmHg 78%
17:00 +19°C° 0 mm 4 mps 757 mmHg 80%
18:00 +19°C° 0 mm 3 mps 757 mmHg 83%
19:00 +18°C° 0.1 mm 3 mps 757 mmHg 86%
20:00 +18°C° 0.1 mm 3 mps 757 mmHg 90%
21:00 +17°C° 0.1 mm 2 mps 757 mmHg 94%
22:00 +17°C° 0.1 mm 2 mps 757 mmHg 95%
23:00 +16°C° 0.1 mm 2 mps 757 mmHg 96%

19 July, Sunday

Time Temperature Precipitation Wind Pressure Humidity
00:00 +16°C° 0.1 mm 2 mps 757 mmHg 97%
01:00 +16°C° 0.4 mm 2 mps 756 mmHg 97%
02:00 +16°C° 0.4 mm 2 mps 756 mmHg 97%
03:00 +16°C° 0.4 mm 2 mps 756 mmHg 98%
04:00 +14°C° 0.4 mm 3 mps 756 mmHg 95%
05:00 +14°C° 0.4 mm 3 mps 756 mmHg 92%
06:00 +13°C° 0.4 mm 4 mps 756 mmHg 90%
07:00 +13°C° 0 mm 4 mps 757 mmHg 85%
08:00 +14°C° 0 mm 4 mps 757 mmHg 81%
09:00 +14°C° 0 mm 4 mps 757 mmHg 77%
10:00 +17°C° 0 mm 4 mps 757 mmHg 71%
11:00 +18°C° 0 mm 4 mps 758 mmHg 65%
12:00 +20°C° 0 mm 4 mps 758 mmHg 60%
13:00 +20°C° 0 mm 4 mps 758 mmHg 59%
14:00 +20°C° 0 mm 3 mps 758 mmHg 58%
15:00 +21°C° 0 mm 3 mps 758 mmHg 57%
16:00 +20°C° 0.2 mm 3 mps 758 mmHg 62%
17:00 +19°C° 0.2 mm 3 mps 758 mmHg 67%
18:00 +18°C° 0.2 mm 4 mps 758 mmHg 72%
19:00 +17°C° 0 mm 4 mps 759 mmHg 77%
20:00 +14°C° 0 mm 4 mps 759 mmHg 81%
21:00 +12°C° 0 mm 4 mps 760 mmHg 85%
22:00 +12°C° 0 mm 3 mps 760 mmHg 83%
23:00 +11°C° 0 mm 3 mps 760 mmHg 82%
Show more